| time (UTC) | temp C | wind direction | speed KPH | gust KPH | rain 1hr cm | rain 24hr cm | rain mn cm | humidity % | barometer mb |
| 20260505053054 | 16 | 210 | 8.0 | 24.1 | 0.00 | 0.00 | 0.00 | 43 | 1014.4 |
| 20260505051549 | 15 | 188 | 12.9 | 20.9 | 0.00 | 0.00 | 0.00 | 44 | 1014.4 |
| 20260505041554 | 9 | 219 | 9.7 | 14.5 | 0.00 | 0.00 | 0.00 | 61 | 1014.4 |
| 20260505040054 | 7 | 221 | 8.0 | 14.5 | 0.00 | 0.00 | 0.00 | 65 | 1014.5 |
| 20260505034550 | 6 | 191 | 9.7 | 12.9 | 0.00 | 0.00 | 0.00 | 67 | 1014.5 |
| 20260505033051 | 6 | 221 | 4.8 | 8.0 | 0.00 | 0.00 | 0.00 | 66 | 1014.4 |
| 20260505031552 | 6 | 204 | 8.0 | 11.3 | 0.00 | 0.00 | 0.00 | 66 | 1014.5 |
| 20260505030048 | 6 | 198 | 8.0 | 11.3 | 0.00 | 0.00 | 0.00 | 67 | 1014.5 |
| 20260505024547 | 5 | 252 | 6.4 | 12.9 | 0.00 | 0.00 | 0.00 | 68 | 1014.5 |
| 20260505023055 | 5 | 250 | 4.8 | 11.3 | 0.00 | 0.00 | 0.00 | 68 | 1014.5 |
| 20260505021549 | 5 | 259 | 3.2 | 11.3 | 0.00 | 0.00 | 0.00 | 67 | 1014.6 |
| 20260505020055 | 6 | 219 | 4.8 | 9.7 | 0.00 | 0.00 | 0.00 | 65 | 1014.7 |
| 20260505014550 | 6 | 250 | 3.2 | 12.9 | 0.00 | 0.00 | 0.00 | 66 | 1014.8 |
| 20260505013047 | 6 | 255 | 8.0 | 12.9 | 0.00 | 0.00 | 0.00 | 67 | 1014.8 |
| 20260505011554 | 6 | 219 | 6.4 | 11.3 | 0.00 | 0.00 | 0.00 | 68 | 1014.8 |
| 20260505010100 | 5 | 272 | 3.2 | 9.7 | 0.00 | 0.00 | 0.00 | 70 | 1014.9 |
| 20260505004552 | 5 | 268 | 6.4 | 11.3 | 0.00 | 0.00 | 0.00 | 68 | 1014.9 |
| 20260505003057 | 5 | 258 | 4.8 | 9.7 | 0.00 | 0.00 | 0.00 | 68 | 1015.2 |
| 20260505001550 | 5 | 259 | 3.2 | 4.8 | 0.00 | 0.00 | 0.00 | 68 | 1015.3 |
| 20260505000058 | 6 | 259 | 1.6 | 6.4 | 0.00 | 0.00 | 0.00 | 68 | 1015.3 |
| 20260504234553 | 5 | 259 | 4.8 | 6.4 | 0.00 | 0.00 | 0.00 | 69 | 1015.5 |
| 20260504233050 | 6 | 257 | 3.2 | 4.8 | 0.00 | 0.00 | 0.00 | 67 | 1015.6 |
| 20260504231552 | 5 | 257 | 3.2 | 6.4 | 0.00 | 0.00 | 0.00 | 69 | 1015.7 |
| 20260504230050 | 5 | 253 | 3.2 | 6.4 | 0.00 | 0.00 | 0.00 | 70 | 1015.8 |
| 20260504224549 | 5 | 235 | 3.2 | 8.0 | 0.00 | 0.00 | 0.00 | 68 | 1015.9 |
| 20260504223051 | 5 | 225 | 4.8 | 9.7 | 0.00 | 0.00 | 0.00 | 69 | 1015.9 |
| 20260504221551 | 5 | 253 | 8.0 | 11.3 | 0.00 | 0.00 | 0.00 | 68 | 1016.1 |
| 20260504220111 | 6 | 248 | 6.4 | 11.3 | 0.00 | 0.00 | 0.00 | 67 | 1016.1 |
| 20260504214552 | 6 | 242 | 6.4 | 12.9 | 0.00 | 0.00 | 0.00 | 65 | 1016.1 |
| 20260504213052 | 7 | 238 | 9.7 | 16.1 | 0.00 | 0.00 | 0.00 | 62 | 1016.1 |
| 20260504211555 | 6 | 236 | 12.9 | 16.1 | 0.00 | 0.00 | 0.00 | 65 | 1016.2 |
| 20260504210059 | 7 | 242 | 9.7 | 14.5 | 0.00 | 0.00 | 0.00 | 64 | 1016.2 |
| 20260504204549 | 7 | 242 | 8.0 | 12.9 | 0.00 | 0.00 | 0.00 | 60 | 1016.3 |
| 20260504203055 | 8 | 238 | 8.0 | 12.9 | 0.00 | 0.00 | 0.00 | 58 | 1016.3 |
| 20260504201547 | 8 | 247 | 11.3 | 16.1 | 0.00 | 0.00 | 0.00 | 57 | 1016.2 |
| 20260504200055 | 9 | 254 | 11.3 | 16.1 | 0.00 | 0.00 | 0.00 | 55 | 1016.2 |
| 20260504194549 | 10 | 246 | 12.9 | 19.3 | 0.00 | 0.00 | 0.00 | 52 | 1016.1 |
| 20260504193051 | 11 | 245 | 16.1 | 19.3 | 0.00 | 0.00 | 0.00 | 49 | 1016.2 |
| 20260504191557 | 12 | 248 | 16.1 | 19.3 | 0.00 | 0.00 | 0.00 | 47 | 1016.1 |
| 20260504190059 | 13 | 248 | 14.5 | 22.5 | 0.00 | 0.00 | 0.00 | 43 | 1016.0 |
| 20260504184609 | 16 | 239 | 17.7 | 29.0 | 0.00 | 0.00 | 0.00 | 37 | 1016.0 |
| 20260504183053 | 16 | 234 | 20.9 | 32.2 | 0.00 | 0.00 | 0.00 | 37 | 1015.8 |
| 20260504181549 | 15 | 232 | 16.1 | 20.9 | 0.00 | 0.00 | 0.00 | 40 | 1015.7 |
| 20260504180049 | 13 | 240 | 12.9 | 19.3 | 0.00 | 0.00 | 0.00 | 44 | 1015.6 |
| 20260504174547 | 15 | 232 | 9.7 | 16.1 | 0.00 | 0.00 | 0.00 | 42 | 1015.5 |
| 20260504173042 | 16 | 224 | 8.0 | 14.5 | 0.00 | 0.00 | 0.00 | 37 | 1015.5 |
| 20260504171549 | 18 | 234 | 9.7 | 12.9 | 0.00 | 0.00 | 0.00 | 34 | 1015.2 |
| 20260504081552 | 20 | 219 | 20.9 | 32.2 | 0.00 | 0.00 | 0.00 | 28 | 1017.9 |